Location: Unspecified
(0.0000°N, 0.0000°E)
Time: 04:57:24
(UTC+00:00)

N. Korean satellite - Pass Details

Date: 09 August 2020
Orbit: 453 x 506 km, 97.2° (Epoch: 13 August)

Event Time Altitude Azimuth Distance (km) Brightness Sun altitude
Rises 05:36:51 0° 355° (N) 2,531 10.4 -6.9°
Reaches altitude 10° 05:39:02 10° 345° (NNW) 1,665 9.3 -6.4°
Maximum altitude 05:42:15 31° 281° (W) 874 7.4 -5.6°
Drops below altitude 10° 05:45:32 10° 217° (SW) 1,697 8.8 -4.8°
Sets 05:47:47 0° 206° (SSW) 2,589 9.8 -4.3°
